Location: Feigenhofen
(48.4939°N, 10.7793°E)
Time: 16:59:44
(UTC+00:00)

Cosmos 2184 Rocket - Pass Details

Date: 26 May 2022
Orbit: 958 x 1003 km, 82.9° (Epoch: 28 June)

Event Time Altitude Azimuth Distance (km) Brightness Sun altitude
Rises 01:34:37 0° 347° (NNW) 3,702 7.7 -13.6°
Reaches altitude 10° 01:37:11 10° 344° (NNW) 2,743 6.9 -13.4°
Maximum altitude 01:43:18 58° 268° (W) 1,125 4.1 -12.8°
Enters shadow 01:48:46 13° 192° (SSW) 2,488 5.6 -12.3°
